Hourly Data Report for June 12, 2018

TORONTO CITY
ONTARIO
Current Station Operator: ECCC - MSC

43°40'00.000" N
79°24'00.000" W
112.50 m
6158355
71508
XTO

Download Data

Hourly Data (June 2018)
Hourly Data Report for June 12, 2018
TIME
LST
Temp Definition
°C
Dew Point Definition
°C
Rel Hum Definition
%
Precip. Amount Definition
mm

Wind Dir Definition
10's deg

Wind Spd Definition
km/h
Visibility Definition
km
Stn Press Definition
kPa
Hmdx Definition


Wind Chill Definition


Weather Definition


00:00 15.2 0.8 37 0.0 LegendMM LegendMM   100.55     LegendNANA
01:00 16.1 0.5 35 0.0 LegendMM LegendMM   100.53     LegendNANA
02:00 15.6 1.0 37 0.0 LegendMM LegendMM   100.47     LegendNANA
03:00 14.5 2.8 45 0.0 LegendMM LegendMM   100.45     LegendNANA
04:00 14.4 3.3 47 0.0 LegendMM LegendMM   100.49     LegendNANA
05:00 13.7 3.5 50 0.0 LegendMM LegendMM   100.53     LegendNANA
06:00 14.3 4.8 53 0.0 LegendMM LegendMM   100.50     LegendNANA
07:00 17.1 6.3 49 0.0 LegendMM LegendMM   100.56     LegendNANA
08:00 19.0 5.9 42 0.0 LegendMM LegendMM   100.56     LegendNANA
09:00 20.1 6.6 42 0.0 LegendMM LegendMM   100.53     LegendNANA
10:00 20.2 9.3 49 0.0 LegendMM LegendMM   100.50     LegendNANA
11:00 21.7 12.9 57 0.0 LegendMM LegendMM   100.47     LegendNANA
12:00 22.1 12.6 55 0.0 LegendMM LegendMM   100.44 25   LegendNANA
13:00 24.0 13.5 52 0.0 LegendMM LegendMM   100.35 27   LegendNANA
14:00 24.7 12.7 47 0.0 LegendMM LegendMM   100.25 27   LegendNANA
15:00 24.9 11.9 44 0.0 LegendMM LegendMM   100.17 27   LegendNANA
16:00 25.6 13.8 48 0.0 LegendMM LegendMM   100.08 29   LegendNANA
17:00 24.7 12.8 48 0.0 LegendMM LegendMM   100.04 27   LegendNANA
18:00 23.3 12.7 51 0.0 LegendMM LegendMM   99.96 26   LegendNANA
19:00 21.1 12.9 59 0.0 LegendMM LegendMM   99.94     LegendNANA
20:00 20.0 12.8 63 0.0 LegendMM LegendMM   99.91     LegendNANA
21:00 20.1 12.2 60 0.0 LegendMM LegendMM   99.92     LegendNANA
22:00 20.8 11.8 56 0.0 LegendMM LegendMM   99.90     LegendNANA
23:00 21.3 13.5 61 0.0 LegendMM LegendMM   99.86     LegendNANA

Notes on Data Quality.

Legend

  • E = Estimated
  • M = Missing
  • NA = Not Available*
  • [empty] = Indicates an unobserved value
Date modified: